Estación Meteorológica Peña el Pijo (Robertgarden) [ 07/23/19 00:56:17 CEST ]

Fecha Hora Presion(HPa) Temp (°C) Humedad % Rocio (°C) Viento ( m/s) Direccion Lluvia 1Hora(mm) Lluvia 24H(mm) LLuvia Total(mm)
2019-Jun-26 01:09:18 1011.800 - - - - WSW     330.48
2019-Jun-26 02:08:50 1011.500 - - - - WSW     330.48
2019-Jun-26 03:09:46 1011.100 - - - - WSW     330.48
2019-Jun-26 04:10:19 1010.400 - - - - WSW     330.48
2019-Jun-26 05:09:30 1010.200 - - - - WSW     330.48
2019-Jun-26 06:09:51 1010.600 - - - - WSW     330.48
2019-Jun-26 07:09:33 1011.200 - - - - WSW     330.48
2019-Jun-26 08:09:04 1011.500 - - - - WSW     330.48
2019-Jun-26 09:09:03 1011.600 - - - - WSW     330.48
2019-Jun-26 10:09:23 1011.600 - - - - WSW     330.48
2019-Jun-26 11:08:55 1011.700 - - - - WSW     330.48
2019-Jun-26 12:09:37 1011.600 - - - - WSW     330.48
2019-Jun-26 13:09:12 1011.300 - - - - WSW     330.48
2019-Jun-26 14:09:04 1010.900 - - - - WSW     330.48
2019-Jun-26 15:09:22 1010.500 - - - - WSW     330.48
2019-Jun-26 16:09:00 1010.500 - - - - WSW     330.48
2019-Jun-26 17:09:15 1010.200 - - - - WSW     330.48
2019-Jun-26 18:09:29 1009.800 - - - - WSW     330.48
2019-Jun-26 19:08:57 1009.600 - - - - WSW     330.48
2019-Jun-26 20:09:07 1010.400 - - - - WSW     330.48
2019-Jun-26 21:09:00 1011.100 - - - - WSW     330.48
2019-Jun-26 22:09:00 1012.000 - - - - WSW     330.48
2019-Jun-26 23:09:40 1012.900 - - - - WSW     330.48

Temperatura Máxima:    Temperatura Mínima:
Presión Máxima:1012.900 Hpa    Presión Mínima:1009.600 Hpa


Volver